Previsão horária em Juliszewo

Hoje, 24 Junho, Quinta-feira

Tempo Temperatura Precipitação Vento Pressão Humidade
00:00 +19°C° 0 mm 2 m/s 754 mmHg 92%
01:00 +18°C° 0 mm 2 m/s 754 mmHg 93%
02:00 +18°C° 0 mm 2 m/s 754 mmHg 93%
03:00 +18°C° 0 mm 3 m/s 754 mmHg 92%
04:00 +17°C° 0 mm 3 m/s 754 mmHg 92%
05:00 +18°C° 0 mm 3 m/s 753 mmHg 86%
06:00 +20°C° 0 mm 3 m/s 753 mmHg 80%
07:00 +21°C° 0 mm 4 m/s 753 mmHg 75%
08:00 +22°C° 0.3 mm 3 m/s 753 mmHg 73%
09:00 +24°C° 0.3 mm 2 m/s 753 mmHg 72%
10:00 +26°C° 0.3 mm 2 m/s 753 mmHg 71%
11:00 +27°C° 0.2 mm 2 m/s 753 mmHg 69%
12:00 +28°C° 0.2 mm 2 m/s 752 mmHg 67%
13:00 +28°C° 0.2 mm 3 m/s 751 mmHg 65%
14:00 +29°C° 0.8 mm 3 m/s 751 mmHg 65%
15:00 +29°C° 0.8 mm 2 m/s 751 mmHg 66%
16:00 +29°C° 0.8 mm 2 m/s 750 mmHg 67%
17:00 +28°C° 0.3 mm 2 m/s 750 mmHg 70%
18:00 +28°C° 0.3 mm 2 m/s 749 mmHg 73%
19:00 +27°C° 0.3 mm 1 m/s 749 mmHg 76%
20:00 +25°C° 1.2 mm 2 m/s 749 mmHg 82%
21:00 +22°C° 1.2 mm 3 m/s 749 mmHg 88%
22:00 +20°C° 1.2 mm 4 m/s 750 mmHg 93%
23:00 +20°C° 0 mm 4 m/s 750 mmHg 94%

Amanhã, 25 Junho, Sexta-feira

Tempo Temperatura Precipitação Vento Pressão Humidade
00:00 +19°C° 0 mm 5 m/s 749 mmHg 96%
01:00 +19°C° 0 mm 5 m/s 749 mmHg 97%
02:00 +18°C° 0 mm 4 m/s 749 mmHg 97%
03:00 +17°C° 0 mm 4 m/s 750 mmHg 97%
04:00 +17°C° 0 mm 3 m/s 750 mmHg 97%
05:00 +17°C° 0.1 mm 4 m/s 750 mmHg 94%
06:00 +17°C° 0.1 mm 4 m/s 750 mmHg 92%
07:00 +18°C° 0.1 mm 4 m/s 750 mmHg 90%
08:00 +18°C° 0 mm 4 m/s 750 mmHg 86%
09:00 +19°C° 0 mm 4 m/s 751 mmHg 82%
10:00 +20°C° 0 mm 5 m/s 751 mmHg 78%
11:00 +20°C° 0.1 mm 5 m/s 751 mmHg 79%
12:00 +20°C° 0.1 mm 5 m/s 751 mmHg 79%
13:00 +20°C° 0.1 mm 5 m/s 751 mmHg 79%
14:00 +20°C° 0 mm 4 m/s 751 mmHg 78%
15:00 +20°C° 0 mm 4 m/s 751 mmHg 77%
16:00 +20°C° 0 mm 3 m/s 751 mmHg 76%
17:00 +20°C° 0.1 mm 3 m/s 751 mmHg 78%
18:00 +20°C° 0.1 mm 2 m/s 751 mmHg 80%
19:00 +20°C° 0.1 mm 2 m/s 751 mmHg 82%
20:00 +18°C° 0 mm 2 m/s 752 mmHg 85%
21:00 +17°C° 0 mm 2 m/s 752 mmHg 87%
22:00 +16°C° 0 mm 1 m/s 752 mmHg 90%
23:00 +16°C° 0 mm 2 m/s 752 mmHg 91%

Depois de amanhã, 26 Junho, Sábado

Tempo Temperatura Precipitação Vento Pressão Humidade
00:00 +15°C° 0 mm 2 m/s 752 mmHg 92%
01:00 +15°C° 0 mm 2 m/s 753 mmHg 92%
02:00 +15°C° 0 mm 2 m/s 753 mmHg 92%
03:00 +14°C° 0 mm 2 m/s 753 mmHg 93%
04:00 +14°C° 0 mm 2 m/s 753 mmHg 93%
05:00 +16°C° 0 mm 2 m/s 753 mmHg 86%
06:00 +17°C° 0 mm 2 m/s 753 mmHg 80%
07:00 +19°C° 0 mm 3 m/s 754 mmHg 74%
08:00 +20°C° 0 mm 3 m/s 754 mmHg 68%
09:00 +21°C° 0 mm 3 m/s 754 mmHg 62%
10:00 +22°C° 0 mm 4 m/s 754 mmHg 57%
11:00 +24°C° 0 mm 3 m/s 754 mmHg 54%
12:00 +24°C° 0 mm 3 m/s 754 mmHg 51%
13:00 +25°C° 0 mm 3 m/s 753 mmHg 48%
14:00 +25°C° 0 mm 3 m/s 753 mmHg 47%
15:00 +25°C° 0 mm 3 m/s 753 mmHg 47%
16:00 +25°C° 0 mm 3 m/s 753 mmHg 46%
17:00 +24°C° 0 mm 2 m/s 753 mmHg 52%
18:00 +23°C° 0 mm 2 m/s 753 mmHg 58%
19:00 +22°C° 0 mm 1 m/s 753 mmHg 64%
20:00 +20°C° 0 mm 1 m/s 753 mmHg 64%
21:00 +19°C° 0 mm 1 m/s 753 mmHg 65%
22:00 +18°C° 0 mm 1 m/s 753 mmHg 66%
23:00 +16°C° 0 mm 1 m/s 753 mmHg 67%

27 Junho, Domingo

Tempo Temperatura Precipitação Vento Pressão Humidade
00:00 +16°C° 0 mm 1 m/s 753 mmHg 69%
01:00 +15°C° 0 mm 1 m/s 754 mmHg 71%
02:00 +15°C° 0 mm 1 m/s 754 mmHg 72%
03:00 +14°C° 0 mm 1 m/s 754 mmHg 73%
04:00 +13°C° 0 mm 0 m/s 754 mmHg 75%
05:00 +15°C° 0 mm 0 m/s 754 mmHg 70%
06:00 +17°C° 0 mm 0 m/s 754 mmHg 65%
07:00 +19°C° 0 mm 0 m/s 754 mmHg 60%
08:00 +22°C° 0 mm 1 m/s 754 mmHg 56%
09:00 +24°C° 0 mm 1 m/s 754 mmHg 52%
10:00 +25°C° 0 mm 1 m/s 754 mmHg 48%
11:00 +26°C° 0 mm 1 m/s 754 mmHg 47%
12:00 +26°C° 0 mm 2 m/s 754 mmHg 46%
13:00 +27°C° 0 mm 2 m/s 753 mmHg 46%
14:00 +27°C° 0 mm 2 m/s 753 mmHg 46%
15:00 +27°C° 0 mm 2 m/s 753 mmHg 46%
16:00 +27°C° 0 mm 2 m/s 753 mmHg 47%
17:00 +26°C° 0 mm 2 m/s 753 mmHg 53%
18:00 +25°C° 0 mm 2 m/s 753 mmHg 60%
19:00 +23°C° 0 mm 2 m/s 753 mmHg 66%
20:00 +21°C° 0 mm 2 m/s 753 mmHg 67%
21:00 +20°C° 0 mm 2 m/s 753 mmHg 67%
22:00 +19°C° 0 mm 2 m/s 753 mmHg 68%
23:00 +19°C° 0 mm 2 m/s 753 mmHg 71%

28 Junho, Segunda-feira

Tempo Temperatura Precipitação Vento Pressão Humidade
00:00 +18°C° 0 mm 2 m/s 754 mmHg 73%
01:00 +17°C° 0 mm 2 m/s 754 mmHg 76%
02:00 +18°C° 0 mm 2 m/s 754 mmHg 76%
03:00 +18°C° 0 mm 2 m/s 754 mmHg 75%
04:00 +19°C° 0 mm 1 m/s 754 mmHg 75%
05:00 +20°C° 0 mm 1 m/s 754 mmHg 73%
06:00 +21°C° 0 mm 1 m/s 754 mmHg 71%
07:00 +22°C° 0 mm 1 m/s 754 mmHg 68%
08:00 +24°C° 0 mm 1 m/s 754 mmHg 64%
09:00 +25°C° 0 mm 1 m/s 754 mmHg 60%
10:00 +26°C° 0 mm 1 m/s 754 mmHg 56%
11:00 +27°C° 0 mm 1 m/s 754 mmHg 52%
12:00 +28°C° 0 mm 1 m/s 753 mmHg 48%
13:00 +29°C° 0 mm 1 m/s 753 mmHg 44%
14:00 +28°C° 0 mm 1 m/s 753 mmHg 50%
15:00 +27°C° 0 mm 1 m/s 753 mmHg 55%
16:00 +26°C° 0 mm 2 m/s 753 mmHg 60%
17:00 +26°C° 0 mm 2 m/s 753 mmHg 62%
18:00 +25°C° 0 mm 2 m/s 753 mmHg 63%
19:00 +25°C° 0 mm 2 m/s 753 mmHg 64%
20:00 +24°C° 0 mm 2 m/s 753 mmHg 63%
21:00 +24°C° 0 mm 2 m/s 753 mmHg 63%
22:00 +23°C° 0 mm 2 m/s 753 mmHg 62%
23:00 +21°C° 0 mm 2 m/s 753 mmHg 66%

29 Junho, Terça-feira

Tempo Temperatura Precipitação Vento Pressão Humidade
00:00 +21°C° 0 mm 2 m/s 752 mmHg 70%
01:00 +20°C° 0 mm 2 m/s 752 mmHg 74%
02:00 +19°C° 0 mm 2 m/s 752 mmHg 76%
03:00 +19°C° 0 mm 2 m/s 752 mmHg 78%
04:00 +19°C° 0 mm 2 m/s 753 mmHg 79%
05:00 +20°C° 0 mm 3 m/s 753 mmHg 75%
06:00 +22°C° 0 mm 3 m/s 753 mmHg 71%
07:00 +25°C° 0 mm 3 m/s 753 mmHg 66%
08:00 +26°C° 0 mm 3 m/s 753 mmHg 61%
09:00 +28°C° 0 mm 3 m/s 753 mmHg 56%
10:00 +29°C° 0 mm 4 m/s 752 mmHg 51%
11:00 +30°C° 0 mm 3 m/s 752 mmHg 49%
12:00 +31°C° 0 mm 3 m/s 752 mmHg 46%
13:00 +33°C° 0 mm 3 m/s 752 mmHg 44%
14:00 +33°C° 0 mm 3 m/s 752 mmHg 44%
15:00 +33°C° 0 mm 3 m/s 752 mmHg 44%
16:00 +32°C° 0 mm 2 m/s 751 mmHg 45%
17:00 +30°C° 0 mm 3 m/s 751 mmHg 51%
18:00 +29°C° 0 mm 3 m/s 751 mmHg 58%
19:00 +27°C° 0 mm 3 m/s 751 mmHg 65%
20:00 +26°C° 0.3 mm 3 m/s 751 mmHg 70%
21:00 +24°C° 0.3 mm 3 m/s 752 mmHg 74%
22:00 +22°C° 0.3 mm 3 m/s 752 mmHg 79%
23:00 +21°C° 0.4 mm 2 m/s 752 mmHg 81%
Mostrar mais

Necessitamos do seu Consentimento

A Meteoprog e os seus Fornecedores de Serviços podem armazenar e aceder a dados pessoais como cookies, identificadores do dispositivo ou outras tecnologias semelhantes existentes no seu dispositivo e processar estes dados para personalizar conteúdos e anúncios, assim como funcionalidades nas redes sociais e análise de tráfego.

  • Armazenar e/ou aceder a informações no seu dispositivo

    Os cookies, identificadores do dispositivo ou outras informações podem ser armazenados ou acedidos no seu dispositivo, para os fins acima indicados.

  • Anúncios e conteúdos personalizados, medição de anúncios e conteúdos, dados sobre o público-alvo e desenvolvimento de produtos

    Os anúncios e os conteúdos podem ser personalizados com base num perfil. Podem ser adicionados dados adicionais para uma maior personalização dos anúncios e dos conteúdos. A eficácia dos anúncios e dos conteúdos pode ser medida. Podem ser obtidas informações sobre o público que visualizou os anúncios e os conteúdos. Estes dados podem ser usados para desenvolver ou melhorar sistemas, softwares ou a experiência do utilizador.

Ao clicar em "Eu concordo”, permitirá o uso de cookies, identificadores do dispositivo e web beacons mencionados ou outras tecnologias semelhantes. As configurações do navegador do seu dispositivo podem ser alteradas.

Para certos fins, podem ser invocados interesses legítimos ao invés de consentimento. Pode ler mais informação sobre este assunto na nossa Política de Privacidade e Cookies.